Starlink 3080

operational
NORAD ID: 49161 Int'l Des: 2021-082 Owner: SPXS Country: US Constellation: starlink
LEOCIRCULAR

About Starlink 3080

Description loading...

Live Position

Loading 3D Globe...

Upcoming Passes

Altitude History

Altitude vs Time

uPlot chart will show altitude changes over time

Two-Line Element Set

1 49161U 21082AH 25338.68113927 -.00000627 00000-0 -44728-4 0 9998
2 49161 69.9986 173.9824 0002407 271.9548 88.1336 14.98335485232829
Epoch: Dec 4, 2025 • Age: 10 hours

Current Status

Altitude 574.2 km
Velocity 7.57 km/s
Sub-Earth Point 3.78°N, 123.79°W
Launch Date Sep 14, 2021
Age 4.2 years
Type internet

Technical Details

Classification Payload
Mass 297.00 kg
Dry Mass 275.00 kg
Total Mass 297.00 kg
Length 0.20 m
Diameter 2.80 m
Span 9.00 m
Shape Box + pan
Manufacturer SPXS
Bus Type Starlink
Phase Status In Orbit
Owner/State SPXS/US

Large Constellations

Loading constellations...